sat.trackr.live / text

‹ back to catalog

STARLINK-4292

NORAD 53175 · 2022-083AV

PAYLOAD ACTIVE UNKNOWN

§ Identity

Operator
Country
US
Launch date
2022-07-17
Launch site
AFETR
Launch vehicle
Mass (kg)
RCS (m²)

Purposes: comms

External: N2YO · Heavens-Above · Gunter

§ Orbital elements

Epoch: 2026-05-24T20:46:17.404608Z

Period
95.44 min
Inclination
53.2128°
Eccentricity
0.0001546
Mean motion
15.08834431 rev/d
Perigee alt
538.7 km
Apogee alt
540.8 km
Semi-major
6,917.9 km
B*
-4.1547e-5
RAAN
192.1548°
Arg perigee
80.6035°
Mean anomaly
279.5132°
Rev number
21,271

§ Raw data

STARLINK-42921 53175U 22083AV  26144.86547922 -.00000949  00000+0 -41547-4 0  99942 53175  53.2128 192.1548 0001546  80.6035 279.5132 15.08834431212711

JSON: /api/v1/satellites/53175 · /tle

For live sub-satellite position, see the globe view (requires WebGL).

§ Visibility from observer

Set your observer location to see the next 7 days of passes ≥ 10°. The values pass through the URL so the page stays shareable.

No JS? Fill the form by hand. The geolocation button needs JavaScript.